Location: ????????
(55.6189°N, 38.3031°E)
Time: 12:14:19
(UTC+00:00)

SL-16 R/B - Pass Details

Date: 24 February 2020
Orbit: 843 x 847 km, 71.0° (Epoch: 03 April)

Event Time Altitude Azimuth Distance (km) Brightness Sun altitude
Exits shadow 23:30:10 21° 73° (ENE) 1,810 4.3 -38.9°
Drops below altitude 10° 23:32:44 10° 50° (NE) 2,476 5.3 -38.7°
Sets 23:35:32 0° 39° (NE) 3,416 6.3 -38.5°
